TimeHST,TemperatureF,Dew PointF,Humidity,Sea Level PressureIn,VisibilityMPH,Wind Direction,Wind SpeedMPH,Gust SpeedMPH,PrecipitationIn,Events,Conditions,WindDirDegrees,DateUTC
12:54 AM,72.0,66.9,84,29.99,10.0,SE,3.5,-,N/A,,Clear,140,2012-10-09 10:54:00
1:54 AM,68.0,66.0,93,29.99,10.0,South,4.6,-,N/A,,Clear,180,2012-10-09 11:54:00
2:54 AM,69.1,66.0,90,29.99,10.0,SSE,4.6,-,N/A,,Clear,150,2012-10-09 12:54:00
3:54 AM,68.0,66.0,93,29.99,10.0,SSE,6.9,-,N/A,,Clear,160,2012-10-09 13:54:00
4:54 AM,68.0,64.9,90,30.00,10.0,Calm,Calm,-,N/A,,Clear,0,2012-10-09 14:54:00
5:54 AM,68.0,64.9,90,30.01,10.0,Calm,Calm,-,N/A,,Clear,0,2012-10-09 15:54:00
6:54 AM,70.0,66.0,87,30.03,10.0,Calm,Calm,-,N/A,,Clear,0,2012-10-09 16:54:00
7:54 AM,77.0,70.0,79,30.05,10.0,Calm,Calm,-,N/A,,Clear,0,2012-10-09 17:54:00
8:54 AM,81.0,71.1,72,30.07,10.0,North,5.8,-,N/A,,Partly Cloudy,10,2012-10-09 18:54:00
9:54 AM,84.0,71.1,65,30.08,10.0,Variable,5.8,-,N/A,,Partly Cloudy,0,2012-10-09 19:54:00
10:54 AM,84.0,71.1,65,30.07,10.0,North,9.2,-,N/A,,Partly Cloudy,360,2012-10-09 20:54:00
11:54 AM,86.0,71.1,61,30.05,10.0,North,10.4,-,N/A,,Partly Cloudy,10,2012-10-09 21:54:00
12:54 PM,86.0,71.1,61,30.03,10.0,NE,11.5,-,N/A,,Partly Cloudy,40,2012-10-09 22:54:00
1:54 PM,84.9,73.0,67,30.01,10.0,North,11.5,-,N/A,,Partly Cloudy,10,2012-10-09 23:54:00
2:54 PM,84.0,73.9,72,30.01,10.0,NNE,11.5,-,N/A,,Scattered Clouds,20,2012-10-10 00:54:00
3:54 PM,82.9,73.9,74,30.02,9.0,NE,10.4,-,N/A,,Haze,40,2012-10-10 01:54:00
4:54 PM,82.0,73.9,76,30.03,7.0,NE,10.4,-,N/A,,Haze,40,2012-10-10 02:54:00
5:54 PM,80.1,75.0,85,30.05,7.0,NE,9.2,-,N/A,,Haze,40,2012-10-10 03:54:00
6:54 PM,80.1,75.0,85,30.07,10.0,NE,5.8,-,N/A,,Mostly Cloudy,40,2012-10-10 04:54:00
7:54 PM,78.1,75.0,90,30.09,6.0,ENE,3.5,-,N/A,,Haze,60,2012-10-10 05:54:00
8:05 PM,78.8,75.2,89,30.08,5.0,ENE,4.6,-,N/A,,Haze,70,2012-10-10 06:05:00
8:54 PM,77.0,73.9,90,30.10,6.0,Calm,Calm,-,N/A,,Haze,0,2012-10-10 06:54:00
9:21 PM,77.0,75.2,94,30.08,5.0,North,4.6,-,N/A,,Haze,360,2012-10-10 07:21:00
9:28 PM,77.0,75.2,94,30.08,6.0,NNW,5.8,-,N/A,,Haze,340,2012-10-10 07:28:00
9:36 PM,78.8,75.2,89,30.08,5.0,North,4.6,-,N/A,,Haze,350,2012-10-10 07:36:00
9:47 PM,77.0,75.2,94,30.08,6.0,North,5.8,-,N/A,,Haze,360,2012-10-10 07:47:00
9:54 PM,77.0,75.0,94,30.10,6.0,North,5.8,-,N/A,,Haze,350,2012-10-10 07:54:00
10:42 PM,77.0,75.2,94,30.07,6.0,NNW,8.1,-,N/A,,Haze,340,2012-10-10 08:42:00
10:50 PM,77.0,75.2,94,30.07,6.0,NNW,6.9,-,N/A,,Haze,330,2012-10-10 08:50:00
10:54 PM,77.0,75.0,94,30.09,6.0,NNW,8.1,-,N/A,,Haze,330,2012-10-10 08:54:00
11:50 PM,75.2,73.4,94,30.05,7.0,NNE,5.8,-,N/A,,Haze,20,2012-10-10 09:50:00
11:54 PM,75.9,73.0,91,30.07,8.0,NNE,3.5,-,N/A,,Haze,20,2012-10-10 09:54:00